AVA9843 SKPE-SKBO

Flight info

Callsign AVA9843
Flight time 0h 29m
Altitude 27000
Route TOLIM1C TOLIM TOLIM4E
Aircraft A320/M-SDE3FGHIRWY/LB1

Departure

Time 2026-04-22 03:37
Airport Matecaña International Airport (SKPE)

Arrival

Time 2026-04-22 04:07
Airport El Dorado International Airport (SKBO)
Time Latitude Longitude Altitude Speed Heading
2026-04-22 03:29 4.81490 -75.73749 4426 ft 0 kts 342°
2026-04-22 03:31 4.81483 -75.73747 4426 ft 2 kts 342°
2026-04-22 03:31 4.81468 -75.73742 4426 ft 2 kts 342°
2026-04-22 03:32 4.81452 -75.73737 4428 ft 2 kts 315°
2026-04-22 03:32 4.81448 -75.73723 4427 ft 2 kts 255°
2026-04-22 03:32 4.81450 -75.73715 4429 ft 0 kts 252°
2026-04-22 03:34 4.81450 -75.73717 4429 ft 2 kts 252°
2026-04-22 03:34 4.81431 -75.73774 4426 ft 11 kts 252°
2026-04-22 03:34 4.81389 -75.73846 4426 ft 15 kts 222°
2026-04-22 03:34 4.81313 -75.73915 4424 ft 15 kts 222°
2026-04-22 03:35 4.81251 -75.74009 4420 ft 21 kts 252°
2026-04-22 03:35 4.81168 -75.74267 4405 ft 47 kts 252°
2026-04-22 03:35 4.81062 -75.74588 4373 ft 50 kts 251°
2026-04-22 03:35 4.80980 -75.74829 4351 ft 20 kts 243°
2026-04-22 03:36 4.80949 -75.74887 4352 ft 7 kts 305°
2026-04-22 03:36 4.80971 -75.74878 4353 ft 0 kts 68°
2026-04-22 03:36 4.80971 -75.74877 4353 ft 0 kts 73°
2026-04-22 03:36 4.80974 -75.74869 4351 ft 15 kts 73°
2026-04-22 03:37 4.81093 -75.74493 4386 ft 95 kts 72°
2026-04-22 03:37 4.81368 -75.73647 4429 ft 158 kts 72°
2026-04-22 03:37 4.81718 -75.72484 4869 ft 176 kts 84°
2026-04-22 03:37 4.81360 -75.71394 5826 ft 172 kts 138°
2026-04-22 03:38 4.80240 -75.70984 6414 ft 176 kts 178°
2026-04-22 03:38 4.79011 -75.71004 6814 ft 178 kts 187°
2026-04-22 03:38 4.77805 -75.71284 7194 ft 182 kts 201°
2026-04-22 03:38 4.76675 -75.71858 7629 ft 183 kts 213°
2026-04-22 03:39 4.75607 -75.72564 8059 ft 184 kts 213°
2026-04-22 03:39 4.74540 -75.73277 8492 ft 185 kts 214°
2026-04-22 03:39 4.73469 -75.73993 8923 ft 186 kts 214°
2026-04-22 03:39 4.72391 -75.74716 9354 ft 187 kts 215°
2026-04-22 03:40 4.71495 -75.75649 9759 ft 188 kts 240°
2026-04-22 03:40 4.71057 -75.76915 9992 ft 201 kts 259°
2026-04-22 03:40 4.70766 -75.78371 10002 ft 227 kts 254°
2026-04-22 03:40 4.69897 -75.79739 9984 ft 254 kts 217°
2026-04-22 03:41 4.68180 -75.80398 10018 ft 284 kts 184°
2026-04-22 03:41 4.66105 -75.80248 10016 ft 316 kts 169°
2026-04-22 03:41 4.63871 -75.79702 10061 ft 343 kts 165°
2026-04-22 03:41 4.61508 -75.79069 10369 ft 357 kts 166°
2026-04-22 03:42 4.59071 -75.78495 10940 ft 363 kts 168°
2026-04-22 03:42 4.56578 -75.78011 11557 ft 367 kts 171°
2026-04-22 03:42 4.54047 -75.77605 12183 ft 370 kts 172°
2026-04-22 03:42 4.51484 -75.77248 12795 ft 374 kts 173°
2026-04-22 03:43 4.48941 -75.76833 13392 ft 378 kts 164°
2026-04-22 03:43 4.46608 -75.75614 13963 ft 384 kts 140°
2026-04-22 03:43 4.44967 -75.73511 14473 ft 388 kts 116°
2026-04-22 03:43 4.43979 -75.70979 15026 ft 391 kts 109°
2026-04-22 03:44 4.43161 -75.68370 15573 ft 394 kts 107°
2026-04-22 03:44 4.42413 -75.65719 16115 ft 397 kts 105°
2026-04-22 03:44 4.41677 -75.63047 16674 ft 399 kts 106°
2026-04-22 03:44 4.40917 -75.60363 17218 ft 402 kts 106°
2026-04-22 03:45 4.40121 -75.57671 17773 ft 404 kts 107°
2026-04-22 03:45 4.39297 -75.54967 18325 ft 407 kts 106°
2026-04-22 03:45 4.38785 -75.52211 18809 ft 410 kts 95°
2026-04-22 03:45 4.38844 -75.49349 19258 ft 414 kts 83°
2026-04-22 03:46 4.39518 -75.46542 19705 ft 418 kts 70°
2026-04-22 03:46 4.40777 -75.43910 20120 ft 421 kts 61°
2026-04-22 03:46 4.42222 -75.41343 20528 ft 424 kts 61°
2026-04-22 03:46 4.43667 -75.38763 20924 ft 427 kts 61°
2026-04-22 03:47 4.45121 -75.36150 21311 ft 430 kts 61°
2026-04-22 03:47 4.46578 -75.33525 21695 ft 433 kts 61°
2026-04-22 03:47 4.48044 -75.30883 22067 ft 435 kts 61°
2026-04-22 03:47 4.49496 -75.28261 22424 ft 437 kts 61°
2026-04-22 03:48 4.50975 -75.25591 22773 ft 440 kts 61°
2026-04-22 03:48 4.52481 -75.22874 22582 ft 449 kts 61°
2026-04-22 03:48 4.53999 -75.20140 22329 ft 449 kts 61°
2026-04-22 03:48 4.55514 -75.17416 22111 ft 444 kts 61°
2026-04-22 03:49 4.56981 -75.14772 22117 ft 424 kts 61°
2026-04-22 03:49 4.58395 -75.12224 21929 ft 413 kts 61°
2026-04-22 03:49 4.59773 -75.09746 21689 ft 403 kts 61°
2026-04-22 03:49 4.61124 -75.07321 21446 ft 394 kts 61°
2026-04-22 03:50 4.62426 -75.04983 21238 ft 386 kts 61°
2026-04-22 03:50 4.63727 -75.02649 21003 ft 382 kts 61°
2026-04-22 03:50 4.65018 -75.00334 20773 ft 380 kts 61°
2026-04-22 03:50 4.66300 -74.98027 20556 ft 378 kts 61°
2026-04-22 03:51 4.67574 -74.95731 20326 ft 377 kts 61°
2026-04-22 03:51 4.68846 -74.93435 19889 ft 377 kts 61°
2026-04-22 03:51 4.70121 -74.91136 19441 ft 376 kts 61°
2026-04-22 03:51 4.71384 -74.88857 19069 ft 372 kts 61°
2026-04-22 03:52 4.72639 -74.86592 18646 ft 369 kts 61°
2026-04-22 03:52 4.73858 -74.84392 17879 ft 364 kts 61°
2026-04-22 03:52 4.75201 -74.82281 17361 ft 354 kts 49°
2026-04-22 03:52 4.77044 -74.80679 16984 ft 350 kts 30°
2026-04-22 03:53 4.79270 -74.79790 16788 ft 341 kts 11°
2026-04-22 03:53 4.81582 -74.79655 16798 ft 331 kts 354°
2026-04-22 03:53 4.83859 -74.79955 16799 ft 330 kts 352°
2026-04-22 03:53 4.86130 -74.80272 16801 ft 329 kts 352°
2026-04-22 03:54 4.88394 -74.80589 16786 ft 329 kts 352°
2026-04-22 03:54 4.90666 -74.80908 16770 ft 329 kts 352°
2026-04-22 03:54 4.92901 -74.81215 16755 ft 329 kts 354°
2026-04-22 03:54 4.95183 -74.81195 16740 ft 329 kts
2026-04-22 03:55 4.97402 -74.80671 16732 ft 329 kts 18°
2026-04-22 03:55 4.99586 -74.79975 16713 ft 329 kts 17°
2026-04-22 03:55 5.01769 -74.79286 16701 ft 329 kts 17°
2026-04-22 03:55 5.03886 -74.78435 16493 ft 328 kts 32°
2026-04-22 03:56 5.05600 -74.76954 16249 ft 326 kts 52°
2026-04-22 03:56 5.06683 -74.74974 16012 ft 324 kts 73°
2026-04-22 03:56 5.06999 -74.72782 15789 ft 323 kts 93°
2026-04-22 03:56 5.06536 -74.70591 15572 ft 322 kts 113°
2026-04-22 03:57 5.05525 -74.68585 15353 ft 322 kts 118°
2026-04-22 03:57 5.04478 -74.66604 15136 ft 321 kts 118°
2026-04-22 03:57 5.03433 -74.64630 14930 ft 320 kts 118°
2026-04-22 03:57 5.02387 -74.62656 14725 ft 319 kts 118°
2026-04-22 03:58 5.01348 -74.60694 14513 ft 318 kts 118°
2026-04-22 03:58 5.00316 -74.58739 14302 ft 317 kts 117°
2026-04-22 03:58 4.99286 -74.56785 14084 ft 316 kts 117°
2026-04-22 03:58 4.98275 -74.54863 13844 ft 315 kts 117°
2026-04-22 03:59 4.97241 -74.52900 13596 ft 314 kts 117°
2026-04-22 03:59 4.96237 -74.50991 13353 ft 313 kts 117°
2026-04-22 03:59 4.95223 -74.49064 13128 ft 312 kts 117°
2026-04-22 03:59 4.94211 -74.47147 13004 ft 307 kts 117°
2026-04-22 04:00 4.93226 -74.45281 12876 ft 298 kts 117°
2026-04-22 04:00 4.92291 -74.43507 12872 ft 286 kts 117°
2026-04-22 04:00 4.91377 -74.41790 12892 ft 274 kts 120°
2026-04-22 04:00 4.90278 -74.40232 12707 ft 274 kts 127°
2026-04-22 04:01 4.89127 -74.38722 12468 ft 270 kts 127°
2026-04-22 04:01 4.87998 -74.37236 12232 ft 266 kts 126°
2026-04-22 04:01 4.86900 -74.35785 12004 ft 255 kts 127°
2026-04-22 04:01 4.85859 -74.34407 11802 ft 249 kts 126°
2026-04-22 04:02 4.84834 -74.33051 11626 ft 240 kts 126°
2026-04-22 04:02 4.83842 -74.31739 11381 ft 231 kts 126°
2026-04-22 04:02 4.82891 -74.30481 11187 ft 222 kts 126°
2026-04-22 04:02 4.81976 -74.29271 11003 ft 212 kts 126°
2026-04-22 04:03 4.81129 -74.28152 10933 ft 192 kts 126°
2026-04-22 04:03 4.80345 -74.27114 10869 ft 182 kts 126°
2026-04-22 04:03 4.79594 -74.26122 10808 ft 177 kts 126°
2026-04-22 04:03 4.78868 -74.25161 10685 ft 173 kts 126°
2026-04-22 04:04 4.78140 -74.24199 10600 ft 173 kts 126°
2026-04-22 04:04 4.77416 -74.23241 10434 ft 172 kts 126°
2026-04-22 04:04 4.76697 -74.22291 10232 ft 171 kts 126°
2026-04-22 04:04 4.75980 -74.21342 10005 ft 170 kts 126°
2026-04-22 04:05 4.75267 -74.20400 9781 ft 170 kts 126°
2026-04-22 04:05 4.74554 -74.19457 9560 ft 169 kts 126°
2026-04-22 04:05 4.73846 -74.18522 9318 ft 168 kts 126°
2026-04-22 04:05 4.73151 -74.17603 9065 ft 168 kts 127°
2026-04-22 04:06 4.72448 -74.16674 8806 ft 167 kts 127°
2026-04-22 04:06 4.71747 -74.15748 8544 ft 167 kts 127°
2026-04-22 04:06 4.71052 -74.14826 8368 ft 160 kts 127°
2026-04-22 04:06 4.70478 -74.14069 8365 ft 110 kts 127°
2026-04-22 04:07 4.70118 -74.13593 8366 ft 64 kts 127°
2026-04-22 04:07 4.69908 -74.13342 8368 ft 35 kts 147°
2026-04-22 04:07 4.69786 -74.13305 8366 ft 14 kts 172°
2026-04-22 04:07 4.69689 -74.13297 8366 ft 14 kts 193°
2026-04-22 04:08 4.69696 -74.13363 8366 ft 11 kts 307°
2026-04-22 04:08 4.69743 -74.13426 8366 ft 12 kts 307°
2026-04-22 04:08 4.69809 -74.13512 8366 ft 17 kts 307°
2026-04-22 04:08 4.69882 -74.13607 8366 ft 18 kts 307°
2026-04-22 04:09 4.69965 -74.13718 8366 ft 20 kts 307°
2026-04-22 04:09 4.70052 -74.13833 8366 ft 21 kts 307°
2026-04-22 04:09 4.70141 -74.13951 8365 ft 21 kts 307°
2026-04-22 04:09 4.70231 -74.14071 8366 ft 22 kts 307°
2026-04-22 04:10 4.70322 -74.14191 8366 ft 22 kts 307°
2026-04-22 04:10 4.70414 -74.14312 8366 ft 22 kts 307°
2026-04-22 04:10 4.70420 -74.14406 8366 ft 14 kts 224°
2026-04-22 04:10 4.70343 -74.14465 8366 ft 14 kts 216°
2026-04-22 04:11 4.70261 -74.14527 8366 ft 15 kts 217°
2026-04-22 04:11 4.70175 -74.14591 8366 ft 16 kts 217°
2026-04-22 04:11 4.70084 -74.14594 8366 ft 15 kts 134°
2026-04-22 04:11 4.70020 -74.14511 8366 ft 15 kts 127°
2026-04-22 04:12 4.69960 -74.14461 8366 ft 8 kts 187°
2026-04-22 04:12 4.69923 -74.14484 8366 ft 6 kts 208°
2026-04-22 04:12 4.69898 -74.14497 8366 ft 0 kts 208°